Tracking 18815 objects as of 19-October-2017
HD Live streaming from Space Station
objects crossing your sky now

TDRS 3

Track TDRS 3 now!
TDRS 3 is classified as:


NORAD ID: 19548
Int'l Code: 1988-091B
Perigee: 35,640.3 km
Apogee: 35,942.9 km
Inclination: 14.4 °
Period: 1,436.0 minutes
Semi major axis: 42162 km
RCS: 38.9601 m2 (large)
Launch date: September 29, 1988
Source: United States (US)
Launch site: AIR FORCE EASTERN TEST RANGE (AFETR)

Backup; still partially operational.
aabbcc
Your satellite tracking list
Your tracking list is empty





NASA's NSSDC Master Catalog

Two Line Element Set (TLE):
1 19548U 88091B   17291.42624303 -.00000314 +00000-0 +00000-0 0  9996
2 19548 014.4481 006.7007 0035887 306.2370 165.2419 01.00279339093681
Source of the keplerian elements: AFSPC